Regional Weather Roundup
Issued by NWS Boston, MA

Home | Current Version | Previous Version | Text Only | Print | Product List | Glossary On
Versions: 1 2 3 4 5 6 7 8 9 10 11 12 13 14 15 16 17 18 19 20 21 22 23 24 25 26 27 28 29 30 31 32 33 34 35 36 37 38 39 40 41 42 43 44 45 46 47 48 49 50
000
ASUS41 KBOX 271510
RWRBOX

REGIONAL WEATHER ROUNDUP
NATIONAL WEATHER SERVICE TAUNTON MA
1100 AM EDT TUE JUN 27 2017

NOTE:  "FAIR" INDICATES FEW OR NO CLOUDS BELOW 12,000 FEET WITH NO
SIGNIFICANT WEATHER AND/OR OBSTRUCTIONS TO VISIBILITY.

MAZALL-271600-
EASTERN MASSACHUSETTS

CITY           SKY/WX    TMP DP  RH WIND       PRES   REMARKS
BOSTON         LGT RAIN  68  56  65 W9        30.02R
BEVERLY        CLOUDY    70  57  63 W10       30.01R
LAWRENCE       LGT RAIN  70  56  61 W8        30.03S
BEDFORD        LGT RAIN  64  55  72 W7        30.00F
BLUE HILL        N/A     62  57  83 W8        30.02S
NORWOOD        CLOUDY    66  59  78 W5        30.01S
MARSHFIELD     CLOUDY    70  63  78 CALM      30.01R
PLYMOUTH       CLOUDY    70  62  76 SE3       30.01S
TAUNTON        CLOUDY    69  62  78 VRB5      30.02R
NEW BEDFORD    CLOUDY    70  64  81 S9        30.01S
$$

MAZALL-271600-
CAPE COD AND THE ISLANDS

CITY           SKY/WX    TMP DP  RH WIND       PRES   REMARKS
FALMOUTH         N/A    N/A N/A N/A MISG        N/A
HYANNIS        PTSUNNY   69  63  81 S9        30.01F
CHATHAM        SUNNY     72  64  76 SW12G20   30.04F
PROVINCETOWN   CLOUDY    69  63  81 S9        30.02F
NANTUCKET      MOSUNNY   68  64  87 S13       30.04F
MARTHAS VNYRD  MOSUNNY   72  61  68 S16       30.03F
$$

MAZALL-271600-
CENTRAL AND WESTERN MASSACHUSETTS

CITY           SKY/WX    TMP DP  RH WIND       PRES   REMARKS
WORCESTER      CLOUDY    63  54  72 SW6       30.00F
FITCHBURG      CLOUDY    68  55  63 E5        30.00F
ORANGE         CLOUDY    64  57  78 SW5       29.99F
SPRINGFIELD    PTSUNNY   67  57  70 CALM      29.98F
WESTFIELD      CLOUDY    67  57  70 S5        29.99F
NORTH ADAMS    CLOUDY    64  56  75 CALM      29.97F
PITTSFIELD     PTSUNNY   64  53  67 VRB5      29.97F
$$

RIZALL-271600-
RHODE ISLAND

CITY           SKY/WX    TMP DP  RH WIND       PRES   REMARKS
PROVIDENCE     CLOUDY    68  60  75 W3        30.02F
NEWPORT        CLOUDY    67  63  87 VRB6      30.04R
BLOCK ISLAND   CLOUDY    68  64  87 NW6       30.03F
WESTERLY       LGT RAIN  66  62  87 E12       30.00F
$$

CTZALL-271600-
CONNECTICUT

CITY           SKY/WX    TMP DP  RH WIND       PRES   REMARKS
BRADLEY INTL   CLOUDY    66  59  78 CALM      30.00S
HARTFORD       PTSUNNY   67  59  75 CALM      29.99S
BRIDGEPORT     PTSUNNY   69  56  62 S6        30.00S
DANBURY        CLOUDY    67  60  78 S8        30.01F
GROTON         CLOUDY    67  63  87 E9        29.99F
NEW HAVEN      PTSUNNY   70  55  59 SE5       30.00S
CHESTER        FAIR      70  57  64 VRB5      30.00S
MERIDEN        PTSUNNY   69  59  70 CALM      29.99S
WILLIMANTIC    PTSUNNY   68  60  75 S5        30.00F
OXFORD         CLOUDY    66  55  68 SW6       30.01S
$$

MEZ002-015-021-024-NHZ003-005-008-011-012-014-VTZ005-008-271600-
NORTHERN NEW ENGLAND

CITY           SKY/WX    TMP DP  RH WIND       PRES   REMARKS
PORTLAND ME    CLOUDY    70  54  56 S8        29.99F
BANGOR ME      PTSUNNY   69  55  60 S9        29.98S
CONCORD NH     CLOUDY    64  56  75 CALM      30.01F
MANCHESTER NH  PTSUNNY   68  53  58 W5        29.99F
NASHUA NH      MOSUNNY   67  59  75 CALM      30.01F
PORTSMOUTH NH  CLOUDY    69  58  68 W5        29.99S
JAFFREY NH     MOSUNNY   63  57  81 SW5       30.01F
KEENE NH       CLOUDY    62  56  80 CALM      30.00F
BURLINGTON VT  MOSUNNY   69  53  56 SW10      29.94F
MT. WASHINGTON PTSUNNY   43  37  81 SW25        N/A
$$

NYZ052-076-271600-
EASTERN NEW YORK

CITY           SKY/WX    TMP DP  RH WIND       PRES   REMARKS
ALBANY         PTSUNNY   65  56  72 VRB6      29.97F
NEW YORK CITY  CLOUDY    70  61  73 NE7       29.99F
$$

ANZALL-271600-
MARINE OBSERVATIONS

STATION/POSITION TIME  TEMP    WIND        PRES    VSBY  WAVE
                       AIR SEA DIR/SP/G                  HT/PER
                 (UTC) (F)     (DEG/KT/KT) (MB)    (MI)  (FT/S)
BOSTON BUOY      1350   61 60  150/  8/  8 1016.2          1/ 7
BUZZARDS BAY     1400   64     160/  7/  7 1016.9F
NANTUCKET SOUND  1450      66              1016.6F         1/ 3
MASS BAY-STELLWA 1404   62 61  170/  4/  4 1015.6S         1/ 6
ISLE OF SHOALS   1400   61     270/  2/  3 1015.9R
S OF BLOCK IS    1455      65                N/A           2/ 7
$$

......................KEY.........................
  SKY/WX - SKY CONDITION/PRESENT WEATHER
  TMP    - TEMPERATURE IN FAHRENHEIT
  DWPT   - DEWPOINT IN FAHRENHEIT
  RH     - RELATIVE HUMIDITY IN PERCENT
  WIND   - DIRECTION AND SPEED IN MPH
  PRES   - MEAN SEA LEVEL PRESSURE IN INCHES OF HG
  WCI    - WIND CHILL INDEX
  VSB    - VISIBILITY IN MILES
  HX     - HEAT INDEX
  TC     - TEMPERATURE IN CELSIUS
  VRB    - VARIABLE WIND DIRECTION
  N/A    - NOT AVAILABLE



USA.gov is the U.S. government's official web portal to all federal, state and local government web resources and services.